Regional Weather Roundup
Issued by NWS

Home | Current Version | Previous Version | Graphics & Text | Print | Product List | Glossary On
Versions: 1 2 3 4 5 6 7 8 9 10 11 12 13 14 15 16 17 18 19 20 21 22 23 24 25 26 27 28 29 30 31 32 33 34 35 36 37 38 39 40 41 42 43 44 45 46 47 48 49 50
000
ASUS43 KLMK 271110
RWRKY
KENTUCKY REGIONAL WEATHER ROUNDUP
NATIONAL WEATHER SERVICE LOUISVILLE KY
600 AM EST FRI FEB 27 2015

NOTE "FAIR" INDICATES FEW OR NO CLOUDS BELOW 12,000 FEET
WITH NO SIGNIFICANT WEATHER AND/OR OBSTRUCTIONS TO VISIBILITY.

KYZ001>023-026-027-061>063-070>075-271200-
WESTERN AND SOUTH CENTRAL KENTUCKY

CITY           SKY/WX    TMP DP  RH WIND       PRES   REMARKS
PADUCAH        CLEAR     13   7  77 N10       30.54R WCI   0
HENDERSON      CLEAR     16   9  73 NW7       30.54R WCI   6
OWENSBORO      CLEAR     13   5  70 N5        30.53R WCI   5
HOPKINSVILLE   CLEAR     14   8  77 NW6       30.50R WCI   5
BOWLING GREEN  CLOUDY    20   8  60 NE6       30.49R WCI  12
GLASGOW        PTCLDY    15   9  74 NE6       30.46S WCI   7
$$

KYZ024-025-028>034-038-045-046-053-271200-
NORTH CENTRAL KENTUCKY

CITY           SKY/WX    TMP DP  RH WIND       PRES   REMARKS
LOUISVILLE/SDF PTCLDY    15   6  67 N12       30.50R WCI   2
LOUISVILLE/LOU CLEAR     14   7  73 N3        30.51R
FORT KNOX      PTCLDY    14   7  75 N6        30.47R WCI   5
$$

KYZ035>037-039>044-047>052-055>060-089>105-271200-
NORTHEAST KENTUCKY

CITY           SKY/WX    TMP DP  RH WIND       PRES   REMARKS
LEXINGTON      CLOUDY     8   4  83 CALM      30.45R
COVINGTON      MOCLDY    11   4  73 NW8       30.44R WCI  -1
FRANKFORT      PTCLDY     9   4  80 NW5       30.46R WCI   1
$$

KYZ054-064>069-076>088-106>120-271200-
SOUTHEAST KENTUCKY

CITY           SKY/WX    TMP DP  RH WIND       PRES   REMARKS
JACKSON        CLOUDY    14   6  70 NW7       30.37R WCI   4
LONDON         CLOUDY    17   7  64 NW10      30.39R WCI   5
SOMERSET       PTCLDY    14   9  79 N6        30.45R WCI   5
MIDDLESBORO    FLURRIES  23  17  77 N6        30.36R WCI  15
MONTICELLO     LGT SNOW  18  11  74 N12       30.45R WCI   6
$$



USA.gov is the U.S. government's official web portal to all federal, state and local government web resources and services.